Hourly Weather Abancay

Today, 28 September, Monday

Time Temperature Precipitation Wind Pressure Humidity
00:00 +12°C° 0 mm 1 mps 542 mmHg 90%
01:00 +11°C° 0 mm 0 mps 542 mmHg 92%
02:00 +11°C° 0 mm 0 mps 542 mmHg 92%
03:00 +11°C° 0 mm 0 mps 541 mmHg 91%
04:00 +10°C° 0 mm 0 mps 541 mmHg 91%
05:00 +11°C° 0 mm 0 mps 542 mmHg 88%
06:00 +11°C° 0 mm 0 mps 543 mmHg 85%
07:00 +13°C° 0 mm 1 mps 543 mmHg 81%
08:00 +15°C° 0.1 mm 1 mps 544 mmHg 72%
09:00 +17°C° 0.1 mm 2 mps 545 mmHg 64%
10:00 +19°C° 0.1 mm 3 mps 546 mmHg 55%
11:00 +19°C° 0.6 mm 3 mps 545 mmHg 52%
12:00 +20°C° 0.6 mm 3 mps 545 mmHg 49%
13:00 +21°C° 0.6 mm 3 mps 545 mmHg 47%
14:00 +21°C° 0.7 mm 3 mps 544 mmHg 48%
15:00 +20°C° 0.7 mm 4 mps 544 mmHg 50%
16:00 +20°C° 0.7 mm 4 mps 543 mmHg 51%
17:00 +18°C° 0.6 mm 3 mps 543 mmHg 61%
18:00 +17°C° 0.6 mm 3 mps 543 mmHg 71%
19:00 +15°C° 0.6 mm 2 mps 543 mmHg 82%
20:00 +14°C° 0.2 mm 2 mps 543 mmHg 85%
21:00 +14°C° 0.2 mm 2 mps 543 mmHg 89%
22:00 +13°C° 0.2 mm 1 mps 543 mmHg 92%
23:00 +13°C° 0.1 mm 1 mps 543 mmHg 92%

Tomorrow, 29 September, Tuesday

Time Temperature Precipitation Wind Pressure Humidity
00:00 +13°C° 0.1 mm 1 mps 543 mmHg 92%
01:00 +12°C° 0.1 mm 1 mps 543 mmHg 92%
02:00 +12°C° 0.2 mm 1 mps 543 mmHg 91%
03:00 +12°C° 0.2 mm 1 mps 543 mmHg 91%
04:00 +12°C° 0.2 mm 1 mps 542 mmHg 91%
05:00 +12°C° 0.6 mm 1 mps 543 mmHg 90%
06:00 +12°C° 0.6 mm 1 mps 543 mmHg 89%
07:00 +12°C° 0.6 mm 1 mps 544 mmHg 88%
08:00 +13°C° 0.2 mm 1 mps 544 mmHg 84%
09:00 +14°C° 0.2 mm 1 mps 545 mmHg 80%
10:00 +14°C° 0.2 mm 1 mps 545 mmHg 76%
11:00 +14°C° 0.6 mm 2 mps 545 mmHg 77%
12:00 +15°C° 0.6 mm 2 mps 544 mmHg 77%
13:00 +15°C° 0.6 mm 2 mps 544 mmHg 78%
14:00 +14°C° 0.7 mm 2 mps 543 mmHg 79%
15:00 +14°C° 0.7 mm 2 mps 543 mmHg 80%
16:00 +14°C° 0.7 mm 1 mps 542 mmHg 82%
17:00 +13°C° 0.1 mm 1 mps 543 mmHg 83%
18:00 +13°C° 0.1 mm 1 mps 543 mmHg 84%
19:00 +12°C° 0.1 mm 0 mps 543 mmHg 85%
20:00 +11°C° 0 mm 0 mps 544 mmHg 86%
21:00 +11°C° 0 mm 0 mps 544 mmHg 88%
22:00 +12°C° 0 mm 1 mps 544 mmHg 90%
23:00 +11°C° 0.1 mm 0 mps 544 mmHg 89%

Day after tomorrow, 30 September, Wednesday

Time Temperature Precipitation Wind Pressure Humidity
00:00 +11°C° 0.1 mm 0 mps 544 mmHg 89%
01:00 +11°C° 0.1 mm 0 mps 544 mmHg 88%
02:00 +11°C° 0.1 mm 0 mps 544 mmHg 88%
03:00 +11°C° 0.1 mm 0 mps 543 mmHg 88%
04:00 +11°C° 0.1 mm 0 mps 543 mmHg 88%
05:00 +11°C° 0.1 mm 0 mps 544 mmHg 86%
06:00 +12°C° 0.1 mm 0 mps 544 mmHg 84%
07:00 +12°C° 0.1 mm 0 mps 545 mmHg 83%
08:00 +14°C° 0.2 mm 1 mps 545 mmHg 77%
09:00 +15°C° 0.2 mm 2 mps 546 mmHg 71%
10:00 +17°C° 0.2 mm 2 mps 547 mmHg 65%
11:00 +18°C° 0.5 mm 2 mps 546 mmHg 62%
12:00 +18°C° 0.5 mm 3 mps 546 mmHg 59%
13:00 +19°C° 0.5 mm 3 mps 546 mmHg 56%
14:00 +19°C° 0.6 mm 3 mps 545 mmHg 57%
15:00 +19°C° 0.6 mm 3 mps 545 mmHg 58%
16:00 +19°C° 0.6 mm 3 mps 544 mmHg 59%
17:00 +17°C° 0.5 mm 3 mps 544 mmHg 69%
18:00 +15°C° 0.5 mm 2 mps 544 mmHg 78%
19:00 +14°C° 0.5 mm 2 mps 543 mmHg 87%
20:00 +14°C° 0.5 mm 2 mps 544 mmHg 89%
21:00 +13°C° 0.5 mm 2 mps 544 mmHg 90%
22:00 +13°C° 0.5 mm 1 mps 544 mmHg 92%
23:00 +13°C° 0.1 mm 1 mps 544 mmHg 92%

1 October, Thursday

Time Temperature Precipitation Wind Pressure Humidity
00:00 +12°C° 0.1 mm 1 mps 543 mmHg 92%
01:00 +12°C° 0.1 mm 1 mps 543 mmHg 92%
02:00 +11°C° 0 mm 0 mps 543 mmHg 92%
03:00 +11°C° 0 mm 0 mps 542 mmHg 91%
04:00 +10°C° 0 mm 0 mps 542 mmHg 90%
05:00 +11°C° 0 mm 0 mps 543 mmHg 86%
06:00 +12°C° 0 mm 0 mps 544 mmHg 82%
07:00 +13°C° 0 mm 1 mps 544 mmHg 78%
08:00 +15°C° 0.1 mm 1 mps 545 mmHg 70%
09:00 +17°C° 0.1 mm 2 mps 546 mmHg 63%
10:00 +18°C° 0.1 mm 3 mps 547 mmHg 55%
11:00 +19°C° 0.4 mm 3 mps 546 mmHg 53%
12:00 +20°C° 0.4 mm 3 mps 546 mmHg 52%
13:00 +20°C° 0.4 mm 3 mps 546 mmHg 50%
14:00 +20°C° 0.7 mm 3 mps 545 mmHg 53%
15:00 +19°C° 0.7 mm 3 mps 544 mmHg 56%
16:00 +19°C° 0.7 mm 3 mps 544 mmHg 59%
17:00 +17°C° 0.3 mm 3 mps 544 mmHg 67%
18:00 +16°C° 0.3 mm 2 mps 543 mmHg 76%
19:00 +14°C° 0.3 mm 2 mps 543 mmHg 84%
20:00 +14°C° 0 mm 2 mps 543 mmHg 86%
21:00 +13°C° 0 mm 1 mps 543 mmHg 89%
22:00 +13°C° 0 mm 1 mps 543 mmHg 91%
23:00 +13°C° 0 mm 1 mps 543 mmHg 90%

2 October, Friday

Time Temperature Precipitation Wind Pressure Humidity
00:00 +11°C° 0 mm 0 mps 542 mmHg 90%
01:00 +11°C° 0 mm 0 mps 542 mmHg 89%
02:00 +11°C° 0 mm 0 mps 542 mmHg 90%
03:00 +11°C° 0 mm 0 mps 542 mmHg 91%
04:00 +10°C° 0 mm 0 mps 542 mmHg 92%
05:00 +11°C° 0 mm 0 mps 542 mmHg 88%
06:00 +12°C° 0 mm 1 mps 543 mmHg 85%
07:00 +13°C° 0 mm 1 mps 544 mmHg 81%
08:00 +15°C° 0.1 mm 1 mps 545 mmHg 72%
09:00 +17°C° 0.1 mm 2 mps 546 mmHg 63%
10:00 +19°C° 0.1 mm 2 mps 547 mmHg 53%
11:00 +19°C° 0.2 mm 3 mps 546 mmHg 51%
12:00 +20°C° 0.2 mm 3 mps 546 mmHg 48%
13:00 +21°C° 0.2 mm 4 mps 546 mmHg 45%
14:00 +21°C° 0.5 mm 4 mps 545 mmHg 48%
15:00 +20°C° 0.5 mm 3 mps 545 mmHg 52%
16:00 +19°C° 0.5 mm 3 mps 544 mmHg 55%
17:00 +18°C° 0.2 mm 3 mps 544 mmHg 62%
18:00 +17°C° 0.2 mm 2 mps 544 mmHg 69%
19:00 +15°C° 0.2 mm 2 mps 544 mmHg 76%
20:00 +15°C° 0.1 mm 2 mps 544 mmHg 80%
21:00 +14°C° 0.1 mm 1 mps 544 mmHg 83%
22:00 +14°C° 0.1 mm 1 mps 544 mmHg 87%
23:00 +13°C° 0.1 mm 1 mps 544 mmHg 88%

3 October, Saturday

Time Temperature Precipitation Wind Pressure Humidity
00:00 +13°C° 0.1 mm 1 mps 544 mmHg 89%
01:00 +13°C° 0.1 mm 1 mps 544 mmHg 90%
02:00 +13°C° 0.1 mm 1 mps 544 mmHg 91%
03:00 +12°C° 0.1 mm 1 mps 543 mmHg 91%
04:00 +12°C° 0.1 mm 1 mps 543 mmHg 91%
05:00 +13°C° 0.1 mm 1 mps 544 mmHg 88%
06:00 +13°C° 0.1 mm 1 mps 545 mmHg 84%
07:00 +14°C° 0.1 mm 1 mps 545 mmHg 81%
08:00 +15°C° 0.3 mm 1 mps 546 mmHg 72%
09:00 +18°C° 0.3 mm 1 mps 547 mmHg 64%
10:00 +18°C° 0.3 mm 2 mps 548 mmHg 56%
11:00 +19°C° 0.7 mm 2 mps 547 mmHg 54%
12:00 +20°C° 0.7 mm 3 mps 547 mmHg 52%
13:00 +20°C° 0.7 mm 3 mps 547 mmHg 50%
14:00 +20°C° 0.8 mm 3 mps 546 mmHg 53%
15:00 +19°C° 0.8 mm 3 mps 545 mmHg 56%
16:00 +18°C° 0.8 mm 3 mps 544 mmHg 60%
17:00 +17°C° 0.1 mm 2 mps 544 mmHg 67%
18:00 +16°C° 0.1 mm 2 mps 544 mmHg 74%
19:00 +14°C° 0.1 mm 1 mps 544 mmHg 82%
20:00 +14°C° 0 mm 1 mps 544 mmHg 84%
21:00 +13°C° 0 mm 1 mps 544 mmHg 87%
22:00 +13°C° 0 mm 1 mps 545 mmHg 90%
23:00 +13°C° 0 mm 1 mps 544 mmHg 90%
Show more